OBJECT E, 61898

Orbit data source: Space-Track

You're viewing an Uncataloged Satellite

Recently launched and/or uncataloged satellites may have evolving metadata. Metadata may include but not limited to: Owner, Maufacturer, Bus, Motor, and Mission.

OBJECT E, 61898 is a Chinese satellite in SSO that was launched on Mon, 11 Nov 2024 UTC via a LIJIAN-1 launch vehicle from the Jiuquan Satellite Launch Center, China (JSC). Unknown objects in Earth's orbit typically refer to objects detected orbiting the Earth but have not yet been identified or cataloged. These objects could be anything from previously untracked satellites, spent rocket stages, debris from satellite collisions, or even natural meteoroids temporarily captured by Earth's gravity.

Loading next visibility...
OBJECT E details
Identifier
61898, 2024-205E
Orbit
SSO
Last TLE update5 hours ago
Origin
Flag of CNCGSTL/ISCAS (CN / PRC)
ManufacturerChangguang WJ
MissionOperational spacecraft
Bus & MotorJL-1, Unknown motor
Mass42 kg wet, 42 kg dry
Launch date (UTC)
2024-11-11 (1 week ago)
Launch vehicle
LIJIAN-1
Launch site
Jiuquan Satellite Launch Center, China (JSC)
Object typeUnknown
Shape & HBRUnknown
Radar Cross SectionMedium (>0.1 m² and <1 m²)

Expand to show TLE details & history

TLE from 5 hours ago
0 OBJECT E
1 61898U 24205E   24326.18896247  .00018992  00000-0  10254-2 0  9990
2 61898  97.4735  38.1928 0013555 246.0398 113.9414 15.14695161  1486
Epoch: 2024-11-21T04:32Z
Definitive object data (Epoch: 2024-11-21T04:32:06.357Z)
Latitude-0.00012°
Longitude-90.50795°
Altitude528.792 km
Speed7.596 km/s
True Right ascension02h 32m 46s
True Declination0° 00' 00"
Sunlit
Object was in full shadow at TLE epoch
Visualization TLE readout
Latitude-6.72392°
Longitude-89.43317°
Altitude528.964 km
Speed7.596 km/s
Apparent Right ascension23h 38m 22s
Apparent Declination-40° 21' 33"
Sunlit
Object is in full shadow
Visualization observer readout
Local Sidereal Time06:18:42
Azimuth241.281° WSW
Elevation-31.189°
Doppler factor1
Orbital elements
Apogee altitude528.229 km
Perigee altitude509.531 km
Semi-major axis6,897.017 km
Eccentricity0.0013555
Inclination97.4735°
RAAN38.1928°
Arg. of periapsis246.0398°
True anomaly114.08327°
Mean anomaly113.9414°
Eccentric anomaly114.01234°
Mean motion3.78923 °/min
BSTAR0.0010254
Orbital period95.01 mins
Loading maneuver chart data...
Loading historical data...
Loading historical data...
Loading historical data...
Loading historical data...
Loading historical data...
Loading historical data...
Loading historical data...

OBJECT E Visibility forecast

Observer location: undefined°, undefined

Span
Click to sort rows by Start time (UTC) header in descending order
Start Az.
Max El. time (UTC)
Max El. Az.
Max El.
End time (UTC)
End Az.
7 mins2024-11-21 17:46:42.593Z15.619° NNE2024-11-21 17:49:42.593Z43.938° NE42.324°2024-11-21 17:53:42.593Z187.909° SSW
4 mins2024-11-22 04:28:42.593Z111.441° ESE2024-11-22 04:29:42.593Z85.87° E26.922°2024-11-22 04:32:42.593Z15.74° NNE
|